When you browse on this site, cookies collect data to enhance your experience and personalize the content and advertising you see.
Visit our Privacy Policy to learn more. By continuing to use the site, you agree to this use of cookies and data.
  • In Spain
  • List of Countries
  • For 7 days
  • Water Temperature
  • Weather Map
  • Weather Widgets
  • user-avatar
    Login

    Hourly Weather Kankan

    Today, 22 February, Saturday

    Time Temperature Precipitation Wind Pressure Humidity
    00:00 +23°C° 0 mm 1 mps 684 mmHg 24%
    01:00 +22°C° 0 mm 1 mps 684 mmHg 24%
    02:00 +21°C° 0 mm 1 mps 683 mmHg 24%
    03:00 +20°C° 0 mm 1 mps 683 mmHg 25%
    04:00 +19°C° 0 mm 1 mps 682 mmHg 25%
    05:00 +19°C° 0 mm 1 mps 683 mmHg 25%
    06:00 +19°C° 0 mm 1 mps 683 mmHg 25%
    07:00 +18°C° 0 mm 1 mps 684 mmHg 24%
    08:00 +21°C° 0 mm 2 mps 685 mmHg 20%
    09:00 +25°C° 0 mm 3 mps 686 mmHg 16%
    10:00 +28°C° 0 mm 4 mps 687 mmHg 12%
    11:00 +32°C° 0 mm 4 mps 687 mmHg 11%
    12:00 +34°C° 0 mm 4 mps 686 mmHg 10%
    13:00 +36°C° 0 mm 4 mps 686 mmHg 10%
    14:00 +36°C° 0 mm 4 mps 685 mmHg 10%
    15:00 +37°C° 0 mm 4 mps 685 mmHg 10%
    16:00 +37°C° 0 mm 4 mps 684 mmHg 11%
    17:00 +34°C° 0 mm 3 mps 684 mmHg 12%
    18:00 +31°C° 0 mm 3 mps 684 mmHg 14%
    19:00 +29°C° 0 mm 2 mps 684 mmHg 16%
    20:00 +27°C° 0 mm 2 mps 684 mmHg 17%
    21:00 +26°C° 0 mm 2 mps 685 mmHg 18%
    22:00 +25°C° 0 mm 2 mps 685 mmHg 19%
    23:00 +24°C° 0 mm 2 mps 685 mmHg 19%

    Tomorrow, 23 February, Sunday

    Time Temperature Precipitation Wind Pressure Humidity
    00:00 +23°C° 0 mm 2 mps 685 mmHg 19%
    01:00 +21°C° 0 mm 2 mps 684 mmHg 19%
    02:00 +20°C° 0 mm 2 mps 684 mmHg 19%
    03:00 +20°C° 0 mm 1 mps 684 mmHg 20%
    04:00 +20°C° 0 mm 1 mps 684 mmHg 20%
    05:00 +19°C° 0 mm 1 mps 684 mmHg 20%
    06:00 +19°C° 0 mm 1 mps 684 mmHg 20%
    07:00 +19°C° 0 mm 1 mps 685 mmHg 20%
    08:00 +21°C° 0 mm 2 mps 686 mmHg 17%
    09:00 +25°C° 0 mm 3 mps 687 mmHg 14%
    10:00 +28°C° 0 mm 4 mps 688 mmHg 11%
    11:00 +30°C° 0 mm 4 mps 687 mmHg 10%
    12:00 +33°C° 0 mm 4 mps 687 mmHg 9%
    13:00 +35°C° 0 mm 4 mps 687 mmHg 8%
    14:00 +36°C° 0 mm 4 mps 686 mmHg 8%
    15:00 +36°C° 0 mm 4 mps 686 mmHg 8%
    16:00 +36°C° 0 mm 4 mps 685 mmHg 8%
    17:00 +34°C° 0 mm 4 mps 685 mmHg 10%
    18:00 +30°C° 0 mm 3 mps 685 mmHg 12%
    19:00 +28°C° 0 mm 2 mps 685 mmHg 13%
    20:00 +26°C° 0 mm 2 mps 685 mmHg 15%
    21:00 +25°C° 0 mm 2 mps 685 mmHg 16%
    22:00 +24°C° 0 mm 2 mps 686 mmHg 18%
    23:00 +23°C° 0 mm 2 mps 685 mmHg 19%

    Day after tomorrow, 24 February, Monday

    Time Temperature Precipitation Wind Pressure Humidity
    00:00 +21°C° 0 mm 2 mps 685 mmHg 20%
    01:00 +20°C° 0 mm 2 mps 685 mmHg 21%
    02:00 +20°C° 0 mm 1 mps 685 mmHg 22%
    03:00 +19°C° 0 mm 1 mps 684 mmHg 23%
    04:00 +18°C° 0 mm 1 mps 684 mmHg 23%
    05:00 +18°C° 0 mm 1 mps 685 mmHg 24%
    06:00 +16°C° 0 mm 1 mps 685 mmHg 24%
    07:00 +16°C° 0 mm 1 mps 685 mmHg 25%
    08:00 +19°C° 0 mm 2 mps 686 mmHg 21%
    09:00 +22°C° 0 mm 3 mps 687 mmHg 16%
    10:00 +26°C° 0 mm 5 mps 688 mmHg 12%
    11:00 +28°C° 0 mm 4 mps 687 mmHg 11%
    12:00 +30°C° 0 mm 4 mps 687 mmHg 10%
    13:00 +33°C° 0 mm 4 mps 687 mmHg 9%
    14:00 +33°C° 0 mm 4 mps 686 mmHg 9%
    15:00 +33°C° 0 mm 4 mps 685 mmHg 8%
    16:00 +34°C° 0 mm 4 mps 685 mmHg 8%
    17:00 +30°C° 0 mm 3 mps 684 mmHg 10%
    18:00 +28°C° 0 mm 3 mps 684 mmHg 12%
    19:00 +25°C° 0 mm 2 mps 684 mmHg 13%
    20:00 +24°C° 0 mm 2 mps 684 mmHg 15%
    21:00 +21°C° 0 mm 2 mps 684 mmHg 16%
    22:00 +21°C° 0 mm 1 mps 684 mmHg 18%
    23:00 +20°C° 0 mm 1 mps 684 mmHg 19%

    25 February, Tuesday

    Time Temperature Precipitation Wind Pressure Humidity
    00:00 +19°C° 0 mm 1 mps 684 mmHg 20%
    01:00 +18°C° 0 mm 1 mps 684 mmHg 22%
    02:00 +18°C° 0 mm 1 mps 684 mmHg 24%
    03:00 +16°C° 0 mm 1 mps 683 mmHg 26%
    04:00 +15°C° 0 mm 1 mps 683 mmHg 28%
    05:00 +15°C° 0 mm 1 mps 684 mmHg 29%
    06:00 +15°C° 0 mm 1 mps 684 mmHg 30%
    07:00 +15°C° 0 mm 1 mps 684 mmHg 31%
    08:00 +18°C° 0 mm 2 mps 685 mmHg 27%
    09:00 +20°C° 0 mm 2 mps 686 mmHg 24%
    10:00 +24°C° 0 mm 3 mps 687 mmHg 20%
    11:00 +27°C° 0 mm 3 mps 687 mmHg 18%
    12:00 +29°C° 0 mm 3 mps 686 mmHg 15%
    13:00 +31°C° 0 mm 3 mps 686 mmHg 13%
    14:00 +33°C° 0 mm 3 mps 685 mmHg 13%
    15:00 +34°C° 0 mm 3 mps 685 mmHg 13%
    16:00 +34°C° 0 mm 3 mps 684 mmHg 12%
    17:00 +31°C° 0 mm 2 mps 684 mmHg 14%
    18:00 +28°C° 0 mm 2 mps 684 mmHg 16%
    19:00 +26°C° 0 mm 2 mps 684 mmHg 18%
    20:00 +24°C° 0 mm 2 mps 684 mmHg 19%
    21:00 +23°C° 0 mm 2 mps 684 mmHg 21%
    22:00 +20°C° 0 mm 2 mps 684 mmHg 22%
    23:00 +20°C° 0 mm 1 mps 684 mmHg 23%

    26 February, Wednesday

    Time Temperature Precipitation Wind Pressure Humidity
    00:00 +19°C° 0 mm 1 mps 684 mmHg 25%
    01:00 +18°C° 0 mm 1 mps 683 mmHg 27%
    02:00 +16°C° 0 mm 1 mps 683 mmHg 28%
    03:00 +16°C° 0 mm 1 mps 683 mmHg 30%
    04:00 +15°C° 0 mm 1 mps 682 mmHg 32%
    05:00 +15°C° 0 mm 1 mps 683 mmHg 32%
    06:00 +15°C° 0 mm 1 mps 683 mmHg 32%
    07:00 +15°C° 0 mm 1 mps 683 mmHg 32%
    08:00 +19°C° 0 mm 1 mps 684 mmHg 26%
    09:00 +23°C° 0 mm 2 mps 685 mmHg 20%
    10:00 +26°C° 0 mm 2 mps 686 mmHg 15%
    11:00 +29°C° 0 mm 2 mps 686 mmHg 14%
    12:00 +31°C° 0 mm 3 mps 686 mmHg 12%
    13:00 +34°C° 0 mm 3 mps 685 mmHg 11%
    14:00 +35°C° 0 mm 3 mps 685 mmHg 11%
    15:00 +35°C° 0 mm 3 mps 684 mmHg 12%
    16:00 +36°C° 0 mm 2 mps 683 mmHg 12%
    17:00 +32°C° 0 mm 2 mps 683 mmHg 14%
    18:00 +30°C° 0 mm 2 mps 683 mmHg 16%
    19:00 +27°C° 0 mm 2 mps 683 mmHg 19%
    20:00 +25°C° 0 mm 1 mps 683 mmHg 21%
    21:00 +24°C° 0 mm 1 mps 683 mmHg 23%
    22:00 +22°C° 0 mm 1 mps 684 mmHg 24%
    23:00 +22°C° 0 mm 1 mps 684 mmHg 25%

    27 February, Thursday

    Time Temperature Precipitation Wind Pressure Humidity
    00:00 +21°C° 0 mm 1 mps 684 mmHg 26%
    01:00 +18°C° 0 mm 0 mps 684 mmHg 26%
    02:00 +20°C° 0 mm 1 mps 683 mmHg 26%
    03:00 +19°C° 0 mm 1 mps 683 mmHg 27%
    04:00 +19°C° 0 mm 1 mps 683 mmHg 27%
    05:00 +18°C° 0 mm 1 mps 683 mmHg 27%
    06:00 +18°C° 0 mm 1 mps 683 mmHg 27%
    07:00 +16°C° 0 mm 0 mps 684 mmHg 27%
    08:00 +22°C° 0 mm 1 mps 685 mmHg 22%
    09:00 +26°C° 0 mm 2 mps 686 mmHg 18%
    10:00 +29°C° 0 mm 2 mps 687 mmHg 13%
    11:00 +31°C° 0 mm 2 mps 687 mmHg 12%
    12:00 +35°C° 0 mm 2 mps 687 mmHg 11%
    13:00 +37°C° 0 mm 3 mps 686 mmHg 10%
    14:00 +37°C° 0 mm 2 mps 685 mmHg 10%
    15:00 +37°C° 0 mm 2 mps 685 mmHg 10%
    16:00 +37°C° 0 mm 2 mps 684 mmHg 10%
    17:00 +35°C° 0 mm 2 mps 684 mmHg 12%
    18:00 +31°C° 0 mm 2 mps 684 mmHg 13%
    19:00 +28°C° 0 mm 1 mps 684 mmHg 15%
    20:00 +27°C° 0 mm 1 mps 684 mmHg 17%
    21:00 +25°C° 0 mm 1 mps 684 mmHg 19%
    22:00 +22°C° 0 mm 0 mps 684 mmHg 20%
    23:00 +21°C° 0 mm 0 mps 684 mmHg 21%
    Show more